This is the latest recevied weather packets stored in our database for station/object DM4JH-5. If no packets are shown the sender has not sent any weather packets the latest 1 day(s).
| Time | Temp. | Humidity | Pressure | Rain* | Wind** | Luminosity | Snow |
|---|---|---|---|---|---|---|---|
| 1778387206 | 5° C | 85% | 1015.5 hPa | 0 mm | - | - | - |
| 1778386605 | 5° C | 84% | 1015.6 hPa | 0 mm | - | - | - |
| 1778385343 | 5° C | 82% | 1015.7 hPa | 0 mm | - | - | - |
| 1778384740 | 5° C | 82% | 1015.6 hPa | 0 mm | - | - | - |
| 1778383537 | 5.56° C | 82% | 1015.9 hPa | 0 mm | - | - | - |
| 1778381790 | 6.11° C | 82% | 1016.1 hPa | 0 mm | - | - | - |
| 1778381129 | 6.11° C | 82% | 1016.2 hPa | 0 mm | - | - | - |
| 1778380527 | 6.11° C | 83% | 1016.3 hPa | 0 mm | - | - | - |
| 1778379985 | 6.67° C | 84% | 1016.4 hPa | 0 mm | - | - | - |
| 1778379324 | 6.67° C | 83% | 1016.5 hPa | 0 mm | - | - | - |
| 1778378752 | 6.67° C | 83% | 1016.6 hPa | 0 mm | - | - | - |
| 1778377548 | 6.67° C | 82% | 1016.6 hPa | 0 mm | - | - | - |
| 1778375774 | 7.22° C | 82% | 1016.7 hPa | 0 mm | - | - | - |
| 1778375143 | 7.22° C | 82% | 1016.7 hPa | 0 mm | - | - | - |
| 1778374601 | 7.22° C | 82% | 1016.7 hPa | 0 mm | - | - | - |
| 1778374000 | 7.22° C | 82% | 1016.9 hPa | 0 mm | - | - | - |
| 1778373338 | 7.78° C | 83% | 1017 hPa | 0 mm | - | - | - |
| 1778373097 | 7.78° C | 83% | 1017.3 hPa | 0 mm | - | - | - |
| 1778370330 | 7.78° C | 83% | 1017.8 hPa | 0 mm | - | - | - |
| 1778365278 | 7.78° C | 80% | 1018.8 hPa | 0 mm | - | - | - |
| 1778364104 | 7.78° C | 78% | 1018.8 hPa | 0 mm | - | - | - |
| 1778360433 | 9.44° C | 75% | 1019 hPa | 0 mm | - | - | - |
| 1778359862 | 9.44° C | 75% | 1019.1 hPa | 0 mm | - | - | - |
| 1778356852 | 11.11° C | 72% | 1019.1 hPa | 0 mm | - | - | - |
| 1778354476 | 12.22° C | 69% | 1018.9 hPa | 0 mm | - | - | - |
* Rain latest hour (hover to see other rain measurements)
** Current wind speed in m/s (hover to see current wind gust speed)